EST,Max TemperatureF,Mean TemperatureF,Min TemperatureF,Max Dew PointF,MeanDew PointF,Min DewpointF,Max Humidity, Mean Humidity, Min Humidity, Max Sea Level PressureIn, Mean Sea Level PressureIn, Min Sea Level PressureIn, Max VisibilityMiles, Mean VisibilityMiles, Min VisibilityMiles, Max Wind SpeedMPH, Mean Wind SpeedMPH, Max Gust SpeedMPH,PrecipitationIn, CloudCover, Events, WindDirDegrees
2011-11-1,24,22,19,23,10,-4,100,61,33,,,,0,0,0,24,18,29,0.00,3,Fog,248
2011-11-2,39,32,24,23,13,1,69,50,28,,,,,,,24,18,,0.00,2,,285
2011-11-3,39,32,24,30,21,5,100,69,26,,,,0,0,0,53,35,55,0.00,4,Fog-Snow,273
2011-11-4,21,16,10,21,14,10,100,100,100,,,,0,0,0,56,46,64,0.14,6,Fog-Snow,320
2011-11-5,28,19,10,10,-8,-27,100,38,9,,,,0,0,0,37,27,46,0.00,0,Fog,346
2011-11-6,39,32,24,5,-12,-29,26,16,8,,,,,,,47,36,51,0.00,1,,288
2011-11-7,41,37,33,36,14,-24,100,54,6,,,,2,0,0,72,41,77,0.00,3,Fog,282
2011-11-8,41,34,28,41,26,5,100,74,28,,,,0,0,0,70,57,79,0.00,2,Fog,289
2011-11-9,41,38,35,41,34,-2,100,87,19,,,,0,0,0,51,30,52,0.00,3,Fog,223
2011-11-10,37,34,32,36,33,14,100,94,38,,,,0,0,0,47,44,55,0.00,1,Fog-Rain,201
2011-11-11,19,14,8,19,15,9,100,100,100,,,,0,0,0,74,49,89,0.47,,Fog-Snow,291
2011-11-12,23,14,8,23,16,9,100,99,86,,,,0,0,0,86,64,96,0.04,7,Fog-Snow,273
2011-11-13,35,29,23,32,23,12,100,76,38,,,,0,0,0,53,45,61,0.00,6,Fog,245
2011-11-14,39,36,33,38,35,32,100,94,81,,,,20,2,0,59,45,71,0.00,7,Fog-Rain,256
2011-11-15,39,32,26,39,31,23,100,99,86,,,,0,0,0,69,50,79,0.00,4,Fog,275
2011-11-16,33,30,26,34,29,18,100,92,64,,,,11,1,0,47,36,53,0.53,4,Fog-Rain,250
2011-11-17,28,20,10,28,14,-17,100,94,23,,,,0,0,0,61,48,67,0.20,8,Fog-Snow,292
2011-11-18,12,8,6,10,9,1,100,98,62,,,,0,0,0,59,51,68,0.11,6,Fog-Snow,283
2011-11-19,32,23,14,12,-2,-15,63,32,14,,,,,,,68,54,79,0.00,5,,258
2011-11-20,33,28,19,34,28,12,100,94,51,,,,20,1,0,77,59,84,0.11,7,Fog-Rain,272
2011-11-21,19,16,14,19,-6,-24,100,44,15,,,,0,0,0,59,38,60,0.00,3,Fog,295
2011-11-22,23,18,12,21,-7,-26,100,39,11,,,,20,10,0,41,29,24,0.03,4,Fog-Snow,278
2011-11-23,17,14,12,18,15,12,100,100,100,,,,0,0,0,55,28,40,1.16,,Fog-Snow,81
2011-11-24,28,21,14,25,9,-13,100,61,22,,,,0,0,0,60,45,62,0.00,2,Fog-Snow,312
2011-11-25,37,32,26,25,20,10,86,63,44,,,,,,,79,56,85,0.00,4,Snow,283
2011-11-26,33,28,24,34,29,25,100,96,80,,,,0,0,0,70,52,59,0.00,7,Fog,279
2011-11-27,39,32,26,36,27,12,100,82,47,,,,0,0,0,56,34,66,0.02,6,Fog-Rain,221
2011-11-28,39,36,35,39,36,35,100,100,96,,,,0,0,0,75,58,83,0.02,8,Fog,271
2011-11-29,41,39,37,41,39,37,100,100,100,,,,0,0,0,68,39,81,1.82,,Fog-Rain,200
2011-11-30,42,30,19,43,29,19,100,99,86,,,,0,0,0,63,48,79,1.22,4,Fog-Rain,233